sat.trackr.live / text

‹ back to catalog

STARLINK-11653 [DTC]

NORAD 63267 · 2025-053C

PAYLOAD ACTIVE UNKNOWN

§ Identity

Operator
Country
US
Launch date
2025-03-15
Launch site
AFETR
Launch vehicle
Mass (kg)
RCS (m²)

Purposes: comms

External: N2YO · Heavens-Above · Gunter

§ Orbital elements

Epoch: 2026-09-20T08:42:31.814208Z

Period
91.67 min
Inclination
43.0002°
Eccentricity
0.0001646
Mean motion
15.70900498 rev/d
Perigee alt
355.2 km
Apogee alt
357.4 km
Semi-major
6,734.5 km
B*
1.3472e-3
RAAN
19.0601°
Arg perigee
270.1224°
Mean anomaly
89.9455°
Rev number
8,828

§ Raw data

STARLINK-11653 [DTC]1 63267U 25053C   26263.36286822  .00176580  00000+0  13472-2 0  99902 63267  43.0002  19.0601 0001646 270.1224  89.9455 15.70900498 88286

JSON: /api/v1/satellites/63267 · /tle

For live sub-satellite position, see the globe view (requires WebGL).

§ Visibility from observer

Set your observer location to see the next 7 days of passes ≥ 10°. The values pass through the URL so the page stays shareable.

No JS? Fill the form by hand. The geolocation button needs JavaScript.